Voltar ao catálogo

ATLAS 5 CENTAUR DEB

AtivoHEO
NORAD 57591·DEBRIS·🇺🇸 United States

Lançado Oct 17, 2018 de Cape Canaveral Space Force Station

Loading…

Próximas Passagens (próximas 24 horas)

TLE

AtualizadoSource: Space-Track

Época: Sep 14, 2026, 09:56 UTC

1 57591U 18079HS  26257.41456639 -.00000162  00000-0  00000-0 0  9992
2 57591  12.7682  58.5164 4290609 274.3699  39.3203  1.80138446 27109

Acompanhe ATLAS 5 CENTAUR DEB em tempo real com AllMySat

Download on the App Store